PBO Station Position Time Series. Reference Frame : NAM14
Format Version,1.1.0
4-character ID,NRWY
Station name,NRWY_EBRY_WY2003
Begin Date, 2003-10-12
End Date, 2019-10-07
Release Date, 2019-10-08
Reference position, 44.7148476116 North Latitude, -110.6777181584 East Longitude, 2342.67225 meters elevation,
Date, North (mm), East (mm), Vertical (mm), North Std. Deviation (mm), East Std. Deviation (mm),              Vertical Std. Deviation (mm), Quality,
2003-10-12,0.00, 0.00, 0.00, 2.30, 1.69, 7.45, repro,
2003-10-13,0.85, 0.87, 2.01, 2.30, 1.69, 7.47, repro,
2003-10-14,0.39, -1.37, 5.13, 2.31, 1.70, 7.49, repro,
2003-10-15,1.80, 0.79, 3.93, 2.29, 1.73, 7.53, repro,
2003-10-16,0.34, 0.02, 2.62, 2.19, 1.65, 7.30, repro,
2003-10-17,-0.42, 0.64, -0.00, 2.23, 1.67, 7.31, repro,
2003-10-18,0.87, 0.00, 0.46, 2.22, 1.66, 7.26, repro,
2003-10-19,-1.20, 0.23, -1.15, 2.25, 1.68, 7.39, repro,
2003-10-20,-0.33, 0.58, 1.33, 2.28, 1.74, 7.52, repro,
2003-10-21,1.90, -0.07, -3.36, 2.23, 1.69, 7.43, repro,
2003-10-22,0.79, -0.19, -2.22, 2.32, 1.74, 7.71, repro,
2003-10-23,-0.24, 0.10, -1.52, 2.24, 1.66, 7.41, repro,
2003-10-24,0.67, 0.36, 6.40, 2.30, 1.70, 7.52, repro,
2003-10-25,2.66, 0.25, -7.31, 2.21, 1.67, 7.43, repro,
2003-10-26,2.89, 0.57, -2.77, 2.28, 1.79, 7.84, repro,
2003-10-27,2.03, 2.43, 4.35, 2.29, 1.74, 7.72, repro,
2003-10-28,-0.76, 1.34, 3.65, 2.19, 1.63, 7.26, repro,
2003-10-29,1.44, 1.82, -10.10, 2.50, 1.89, 8.65, repro,
2003-10-30,2.63, 1.49, -4.21, 2.67, 1.94, 8.96, repro,
2003-10-31,1.59, 1.13, -8.31, 2.30, 1.67, 7.46, repro,
2003-11-01,0.97, 1.10, -4.74, 2.21, 1.62, 7.18, repro,
2003-11-02,-0.56, 0.48, -3.10, 2.22, 1.66, 7.38, repro,
2003-11-03,-1.82, 1.70, -3.41, 2.25, 1.63, 7.36, repro,
2003-11-04,-0.35, 1.44, -0.52, 2.23, 1.64, 7.32, repro,
2003-11-05,1.50, 0.26, 5.50, 2.19, 1.62, 7.15, repro,
2003-11-06,5.21, -2.28, -2.77, 2.19, 1.61, 7.18, repro,
2003-11-07,1.94, 3.51, -5.20, 2.32, 1.76, 7.84, repro,
2003-11-08,-4.23, -0.16, -11.78, 2.37, 1.80, 8.17, repro,
2003-11-09,-15.07, -0.99, -18.03, 2.60, 1.87, 8.17, repro,
2003-11-10,-16.38, -3.73, -24.43, 2.21, 1.66, 7.37, repro,
2003-11-11,-7.10, -1.05, -2.65, 2.32, 1.68, 7.71, repro,
2003-11-12,-1.33, 0.46, -0.16, 2.26, 1.64, 7.38, repro,
2003-11-13,-8.40, -0.98, -26.38, 2.36, 1.70, 7.62, repro,
2003-11-14,-10.78, -0.26, -16.01, 2.40, 1.70, 7.72, repro,
2003-11-15,-11.41, 0.53, -10.42, 2.24, 1.65, 7.27, repro,
2003-11-16,-9.54, 1.35, -9.05, 2.30, 1.72, 7.59, repro,
2003-11-17,-8.13, 1.48, -6.50, 2.28, 1.74, 7.53, repro,
2003-11-18,-10.43, 2.19, -13.60, 2.32, 1.76, 7.72, repro,
2003-11-19,-9.05, -0.69, -22.42, 2.25, 1.69, 7.40, repro,
2003-11-20,-4.67, -1.80, -6.93, 2.45, 1.85, 8.39, repro,
2003-11-21,-7.96, -0.56, -7.47, 2.28, 1.69, 7.42, repro,
2003-11-22,-7.89, -0.38, -10.07, 2.35, 1.85, 8.03, repro,
2003-11-23,-8.31, -0.44, -13.25, 2.37, 1.82, 7.97, repro,
2003-11-24,-8.70, -0.93, -6.86, 2.22, 1.67, 7.25, repro,
2003-11-25,-7.00, 0.18, -6.02, 2.32, 1.71, 7.65, repro,
2003-11-26,-9.90, 0.17, -4.46, 2.16, 1.64, 7.18, repro,
2003-11-27,-6.64, -1.08, -17.37, 2.27, 1.71, 7.59, repro,
2003-11-28,-7.77, -0.21, -17.95, 2.22, 1.67, 7.29, repro,
2003-11-29,-8.25, 0.16, -6.20, 2.24, 1.74, 7.54, repro,
2003-11-30,-5.95, -0.77, -19.23, 2.15, 1.62, 7.12, repro,
2003-12-01,-0.49, 2.41, -11.72, 2.32, 1.81, 7.71, repro,
2003-12-02,-5.86, 4.88, -16.45, 2.29, 1.71, 7.60, repro,
2003-12-03,-7.31, 7.12, -5.75, 2.28, 1.73, 7.61, repro,
2003-12-04,-3.27, 4.39, -2.09, 2.54, 1.93, 8.32, repro,
2003-12-05,-5.42, 7.87, -10.32, 2.27, 1.73, 7.54, repro,
2003-12-06,-8.54, 6.57, -12.92, 2.17, 1.63, 7.16, repro,
2003-12-07,-6.06, 4.76, -9.36, 2.29, 1.72, 7.47, repro,
2003-12-08,-2.25, 2.88, -12.73, 2.33, 1.78, 7.73, repro,
2003-12-09,-4.41, 3.96, -26.59, 2.36, 1.76, 7.63, repro,
2003-12-10,-5.62, 2.90, -24.37, 2.20, 1.69, 7.29, repro,
2003-12-11,-3.93, 2.87, -22.04, 2.30, 1.74, 7.58, repro,
2003-12-12,-4.53, 3.04, -27.06, 2.23, 1.70, 7.45, repro,
2003-12-13,-6.80, 3.29, -19.03, 2.22, 1.70, 7.46, repro,
2003-12-14,-5.87, 1.29, -22.76, 2.21, 1.70, 7.42, repro,
2003-12-15,-4.10, -0.93, -22.69, 2.24, 1.69, 7.39, repro,
2003-12-16,-5.47, -0.22, -27.81, 2.25, 1.75, 7.55, repro,
2003-12-17,-4.94, 0.19, -29.30, 2.33, 1.78, 7.83, repro,
2003-12-18,-1.14, -0.33, -33.08, 2.31, 1.82, 7.91, repro,
2003-12-19,-2.43, -3.87, -21.61, 2.26, 1.76, 7.70, repro,
2003-12-20,-2.13, -0.70, -6.08, 2.42, 1.83, 7.93, repro,
2003-12-21,-3.55, -3.49, -2.70, 2.42, 1.87, 7.99, repro,
2003-12-22,-3.51, -0.99, -10.11, 2.24, 1.71, 7.46, repro,
2003-12-23,-4.02, -1.71, -10.81, 2.31, 1.73, 7.59, repro,
2003-12-24,-10.28, 2.50, 5.64, 2.26, 1.73, 7.62, repro,
2003-12-25,-10.31, 2.93, 1.34, 2.33, 1.77, 7.88, repro,
2003-12-26,-8.35, -0.14, -0.53, 2.21, 1.66, 7.38, repro,
2003-12-27,-4.55, 0.57, -6.39, 2.20, 1.66, 7.39, repro,
2003-12-28,-5.16, -0.19, -5.08, 2.19, 1.66, 7.41, repro,
2003-12-29,-5.13, 1.81, -6.29, 2.22, 1.66, 7.37, repro,
2003-12-30,-5.97, 2.42, -9.28, 2.21, 1.65, 7.34, repro,
2003-12-31,-5.22, 1.53, -17.18, 2.18, 1.62, 7.16, repro,
2004-01-01,-6.37, 1.05, -19.24, 2.25, 1.70, 7.56, repro,
2004-01-02,-4.31, 1.72, -30.28, 2.23, 1.70, 7.45, repro,
2004-01-03,-3.81, 0.17, -25.14, 2.25, 1.70, 7.42, repro,
2004-01-04,-3.71, 0.41, -30.58, 2.26, 1.71, 7.57, repro,
2004-01-05,-3.35, 1.09, -37.27, 2.22, 1.68, 7.32, repro,
2004-01-06,-4.14, 0.56, -27.53, 2.28, 1.70, 7.43, repro,
2004-01-07,-3.46, 0.20, -33.42, 2.23, 1.69, 7.41, repro,
2004-01-08,-4.63, -1.38, -39.67, 2.26, 1.70, 7.55, repro,
2004-01-09,-2.39, -0.16, -46.64, 2.39, 1.75, 7.63, repro,
2004-01-10,-0.30, -7.56, -53.66, 2.25, 1.68, 7.34, repro,
2004-01-11,-1.06, -6.02, -55.41, 2.27, 1.71, 7.48, repro,
2004-01-12,6.93, -4.65, -59.74, 2.31, 1.69, 7.52, repro,
2004-01-13,-7.17, -3.57, -39.41, 2.41, 1.75, 7.92, repro,
2004-01-14,-12.27, -3.66, -38.45, 2.41, 1.76, 7.88, repro,
2004-01-15,-17.70, -4.14, -9.64, 2.30, 1.70, 7.65, repro,
2004-01-16,-21.73, -1.38, -17.76, 2.38, 1.73, 7.78, repro,
2004-01-17,2.30, 0.39, -3.77, 2.29, 1.76, 7.74, repro,
2004-01-18,1.03, -0.45, 0.09, 2.36, 1.75, 7.81, repro,
2004-01-19,2.17, -0.94, 0.29, 2.29, 1.66, 7.50, repro,
2004-01-20,1.32, 0.10, -10.91, 2.36, 1.71, 7.64, repro,
2004-01-21,2.29, 0.97, -6.99, 2.32, 1.72, 7.73, repro,
2004-01-22,1.26, -0.87, -0.55, 2.25, 1.67, 7.50, repro,
2004-01-23,1.39, -1.45, 3.50, 2.22, 1.67, 7.43, repro,
2004-01-24,1.19, -1.27, -2.43, 2.30, 1.71, 7.71, repro,
2004-01-25,1.76, 0.01, -8.18, 2.30, 1.76, 7.78, repro,
2004-01-26,0.86, 0.51, -14.19, 2.28, 1.70, 7.52, repro,
2004-01-27,1.89, 1.89, -4.93, 2.36, 1.82, 8.08, repro,
2004-01-28,2.05, 1.13, -0.17, 2.43, 1.84, 8.09, repro,
2004-01-29,1.30, 1.93, 7.40, 2.26, 1.69, 7.55, repro,
2004-01-30,0.68, 3.73, -8.72, 2.24, 1.65, 7.39, repro,
2004-01-31,2.46, 4.15, -14.79, 2.25, 1.67, 7.47, repro,
2004-02-01,2.70, 4.85, -24.11, 2.24, 1.71, 7.53, repro,
2004-02-02,2.11, 4.57, -35.80, 2.18, 1.64, 7.29, repro,
2004-02-03,4.35, 3.63, -31.99, 2.20, 1.69, 7.46, repro,
2004-02-04,4.31, 2.89, -29.74, 2.21, 1.68, 7.46, repro,
2004-02-05,3.09, 2.25, -34.99, 2.25, 1.70, 7.52, repro,
2004-02-06,2.27, 1.07, -38.99, 2.29, 1.70, 7.59, repro,
2004-02-07,-0.08, 1.15, -30.38, 2.33, 1.75, 7.82, repro,
2004-02-08,-0.41, 1.47, -22.82, 2.29, 1.76, 7.61, repro,
2004-02-09,-0.65, 1.46, -26.39, 2.19, 1.65, 7.28, repro,
2004-02-10,-0.45, 1.58, -27.18, 2.23, 1.67, 7.33, repro,
2004-02-11,2.02, 1.24, -20.18, 2.18, 1.64, 7.24, repro,
2004-02-12,0.19, 2.44, -31.90, 2.34, 1.75, 7.76, repro,
2004-02-15,-8.61, 5.13, -27.90, 2.36, 1.79, 7.91, repro,
2004-02-16,-8.08, 6.76, -29.62, 2.31, 1.71, 7.61, repro,
2004-02-17,-10.81, 3.24, -33.27, 2.25, 1.68, 7.52, repro,
2004-02-18,-8.45, 4.64, -54.73, 2.25, 1.66, 7.53, repro,
2004-02-19,-7.50, 3.66, -24.46, 2.28, 1.68, 7.69, repro,
2004-02-20,-12.51, 2.44, -29.60, 2.43, 1.77, 7.95, repro,
2004-02-21,-9.77, 1.15, -30.17, 2.19, 1.64, 7.27, repro,
2004-02-22,-12.81, 5.33, -20.12, 2.42, 1.75, 7.82, repro,
2004-02-23,-17.18, 7.81, -17.26, 2.23, 1.69, 7.42, repro,
2004-02-24,-15.85, 4.91, -10.94, 2.37, 1.75, 7.70, repro,
2004-02-25,0.71, 1.98, -15.68, 2.26, 1.68, 7.46, repro,
2004-02-26,0.69, 3.42, -11.60, 2.23, 1.66, 7.29, repro,
2004-02-27,3.26, 3.29, -3.55, 2.24, 1.66, 7.33, repro,
2004-02-28,3.13, 2.33, -7.27, 2.22, 1.65, 7.23, repro,
2004-02-29,3.28, 2.73, -11.60, 2.21, 1.64, 7.25, repro,
2004-03-01,2.45, 0.36, -21.62, 2.23, 1.65, 7.30, repro,
2004-03-02,2.41, -0.50, -21.82, 2.22, 1.65, 7.29, repro,
2004-03-03,2.79, 0.95, -16.26, 2.26, 1.71, 7.52, repro,
2004-03-04,2.85, -0.87, -16.26, 2.33, 1.73, 7.61, repro,
2004-03-05,1.23, 3.71, -5.28, 2.24, 1.71, 7.54, repro,
2004-03-06,1.39, 4.44, -11.93, 2.22, 1.67, 7.38, repro,
2004-03-07,1.43, 1.47, -9.45, 2.23, 1.65, 7.31, repro,
2004-03-08,4.55, -0.33, -19.46, 2.25, 1.70, 7.52, repro,
2004-03-09,3.37, 2.02, -2.57, 2.30, 1.75, 7.74, repro,
2004-03-10,2.36, 2.10, -0.73, 2.27, 1.71, 7.58, repro,
2004-03-11,3.39, 1.62, -10.68, 2.25, 1.72, 7.58, repro,
2004-03-12,2.52, 1.29, -1.11, 2.26, 1.70, 7.50, repro,
2004-03-13,3.86, 1.00, -2.23, 2.33, 1.77, 7.75, repro,
2004-03-14,3.31, 3.03, -7.72, 2.25, 1.68, 7.44, repro,
2004-03-15,1.11, 2.40, -1.32, 2.25, 1.70, 7.53, repro,
2004-03-16,1.51, 4.79, -0.33, 2.26, 1.70, 7.53, repro,
2004-03-17,0.93, 2.74, 1.95, 2.37, 1.75, 7.82, repro,
2004-03-18,0.43, -0.02, 2.03, 2.41, 1.76, 8.00, repro,
2004-03-19,3.16, -0.33, -5.30, 2.35, 1.74, 7.93, repro,
2004-03-20,2.56, -0.09, -7.75, 2.32, 1.69, 7.70, repro,
2004-03-21,0.94, 0.35, -10.96, 2.35, 1.73, 7.83, repro,
2004-03-22,2.83, 0.90, -5.49, 2.31, 1.72, 7.75, repro,
2004-03-23,2.90, -0.26, 2.53, 2.28, 1.70, 7.61, repro,
2004-03-24,1.53, 1.10, 0.47, 2.32, 1.70, 7.67, repro,
2004-03-25,4.15, 1.13, 2.05, 2.34, 1.70, 7.71, repro,
2004-03-26,0.62, -0.18, -1.77, 2.30, 1.68, 7.60, repro,
2004-03-27,3.81, 1.06, -3.26, 2.31, 1.69, 7.73, repro,
2004-03-28,3.29, -1.23, -4.67, 2.29, 1.67, 7.59, repro,
2004-03-29,3.39, -0.52, -7.79, 2.35, 1.73, 7.75, repro,
2004-03-30,1.99, 0.64, -9.14, 2.29, 1.71, 7.54, repro,
2004-03-31,1.98, 1.38, -9.60, 2.25, 1.66, 7.36, repro,
2004-04-01,3.62, 0.01, -7.36, 2.31, 1.70, 7.61, repro,
2004-04-02,3.91, 1.05, -11.63, 2.23, 1.65, 7.36, repro,
2004-04-03,4.22, 1.90, -15.77, 2.23, 1.66, 7.38, repro,
2004-04-04,0.89, -0.74, -10.42, 2.23, 1.67, 7.35, repro,
2004-04-05,2.98, 1.79, -11.21, 2.22, 1.64, 7.30, repro,
2004-04-06,3.62, 0.68, -7.51, 2.20, 1.62, 7.21, repro,
2004-04-07,2.80, 0.38, -11.18, 2.25, 1.64, 7.41, repro,
2004-04-08,2.57, 0.48, -3.77, 2.21, 1.62, 7.20, repro,
2004-04-09,4.11, 1.35, -16.66, 2.20, 1.62, 7.21, repro,
2004-04-10,2.59, 1.30, -8.12, 2.19, 1.60, 7.13, repro,
2004-04-11,1.84, 1.06, -10.02, 2.21, 1.63, 7.20, repro,
2004-04-12,2.66, -0.05, -12.47, 2.31, 1.73, 7.53, repro,
2004-04-13,2.59, -0.42, -14.06, 2.26, 1.62, 7.35, repro,
2004-04-14,4.49, 0.50, -4.39, 2.25, 1.63, 7.41, repro,
2004-04-15,2.01, 1.99, -4.35, 2.21, 1.62, 7.22, repro,
2004-04-16,1.92, 1.60, -4.82, 2.21, 1.63, 7.29, repro,
2004-04-17,5.08, 5.59, -18.79, 2.30, 1.69, 7.44, repro,
2004-04-18,1.32, 2.96, -10.71, 2.21, 1.62, 7.18, repro,
2004-04-19,1.04, 2.30, 3.34, 2.47, 1.90, 8.48, repro,
2004-04-20,-5.27, 12.95, 3.20, 2.26, 1.67, 7.46, repro,
2004-04-21,1.10, 1.52, 3.58, 2.22, 1.63, 7.26, repro,
2004-04-22,0.96, 0.27, -3.21, 2.36, 1.72, 7.63, repro,
2004-04-23,2.64, 1.40, -12.08, 2.22, 1.62, 7.22, repro,
2004-04-24,4.06, 0.66, -8.87, 2.20, 1.63, 7.23, repro,
2004-04-25,3.37, -0.69, -3.85, 2.23, 1.65, 7.33, repro,
2004-04-26,2.02, 0.44, -12.55, 2.21, 1.61, 7.18, repro,
2004-04-27,1.07, -0.05, 0.75, 2.22, 1.61, 7.21, repro,
2004-04-28,2.89, 0.83, 3.26, 2.21, 1.60, 7.15, repro,
2004-04-29,2.47, 0.87, -8.17, 2.22, 1.65, 7.35, repro,
2004-04-30,2.63, 0.72, -12.28, 2.24, 1.65, 7.36, repro,
2004-05-01,1.16, 0.76, -1.30, 2.27, 1.67, 7.49, repro,
2004-05-02,0.12, 1.90, -5.80, 2.28, 1.67, 7.46, repro,
2004-05-03,1.02, 1.52, 4.63, 2.29, 1.69, 7.55, repro,
2004-05-04,1.39, 0.00, 5.61, 2.29, 1.69, 7.60, repro,
2004-05-05,2.85, 1.23, -2.43, 2.35, 1.73, 7.68, repro,
2004-05-06,1.46, 1.05, -7.80, 2.26, 1.65, 7.40, repro,
2004-05-07,0.02, 1.86, -2.96, 2.28, 1.68, 7.48, repro,
2004-05-08,0.59, 3.44, 5.93, 2.34, 1.75, 7.82, repro,
2004-05-09,2.73, 2.94, 0.55, 2.37, 1.79, 7.97, repro,
2004-05-10,3.66, 3.37, 2.53, 2.27, 1.67, 7.46, repro,
2004-05-11,0.87, 3.44, -2.79, 2.26, 1.68, 7.48, repro,
2004-05-12,2.30, 2.20, -5.81, 2.26, 1.68, 7.45, repro,
2004-05-13,2.21, 2.35, -0.95, 2.29, 1.67, 7.46, repro,
2004-05-14,4.15, 3.77, -8.93, 2.31, 1.75, 7.77, repro,
2004-05-15,2.04, 2.27, 1.12, 2.24, 1.64, 7.25, repro,
2004-05-16,1.94, 1.08, -7.87, 2.29, 1.70, 7.53, repro,
2004-05-17,0.97, 2.88, -8.19, 2.26, 1.66, 7.42, repro,
2004-05-18,3.24, 1.37, -1.79, 2.18, 1.63, 7.15, repro,
2004-05-19,2.32, 2.04, 8.67, 2.21, 1.63, 7.22, repro,
2004-05-20,2.10, 1.64, -4.91, 2.21, 1.62, 7.19, repro,
2004-05-21,2.79, 2.42, -1.20, 2.25, 1.66, 7.32, repro,
2004-05-22,-1.58, -0.93, 75.72, 2.35, 1.75, 8.37, repro,
2004-05-23,-0.70, 0.11, -17.74, 2.19, 1.63, 7.31, repro,
2004-05-24,1.94, 2.18, 4.46, 2.21, 1.65, 7.28, repro,
2004-05-25,2.32, 1.80, 8.42, 2.27, 1.67, 7.49, repro,
2004-05-26,2.21, 3.39, 7.86, 2.17, 1.60, 7.15, repro,
2004-05-27,1.39, 3.51, 5.07, 2.22, 1.66, 7.32, repro,
2004-05-28,-0.08, 0.74, -1.81, 2.25, 1.69, 7.49, repro,
2004-05-29,1.04, 5.05, -6.99, 2.17, 1.63, 7.25, repro,
2004-05-30,2.19, 1.59, 6.28, 2.23, 1.69, 7.47, repro,
2004-05-31,1.30, 2.41, 5.43, 2.22, 1.65, 7.27, repro,
2004-06-01,2.95, 3.12, 5.37, 2.21, 1.61, 7.28, repro,
2004-06-02,3.48, 2.36, -3.16, 2.19, 1.62, 7.32, repro,
2004-06-03,3.06, 3.48, -3.70, 2.17, 1.61, 7.22, repro,
2004-06-04,2.60, 3.06, -7.71, 2.18, 1.62, 7.29, repro,
2004-06-05,3.68, 1.97, -5.96, 2.16, 1.62, 7.23, repro,
2004-06-06,2.34, 4.49, 1.45, 2.18, 1.63, 7.27, repro,
2004-06-07,4.73, 3.28, 3.12, 2.19, 1.62, 7.30, repro,
2004-06-08,3.15, 3.09, 1.31, 2.20, 1.62, 7.30, repro,
2004-06-09,2.76, 2.12, 12.05, 2.20, 1.65, 7.43, repro,
2004-06-10,1.56, 4.58, -7.45, 2.25, 1.67, 7.56, repro,
2004-06-11,1.42, 3.85, 0.60, 2.20, 1.62, 7.28, repro,
2004-06-12,0.96, 2.57, -14.00, 2.24, 1.68, 7.48, repro,
2004-06-13,1.27, 2.12, 5.91, 2.20, 1.62, 7.34, repro,
2004-06-14,2.65, 2.89, 5.58, 2.24, 1.68, 7.56, repro,
2004-06-15,1.89, 2.46, -0.66, 2.29, 1.69, 7.59, repro,
2004-06-16,4.21, 2.31, -8.99, 2.23, 1.63, 7.38, repro,
2004-06-17,4.67, 3.42, -8.92, 2.23, 1.65, 7.40, repro,
2004-06-18,4.02, 3.58, -3.83, 2.26, 1.64, 7.43, repro,
2004-06-19,2.98, 3.71, -5.20, 2.18, 1.63, 7.29, repro,
2004-06-20,4.62, 3.75, -2.88, 2.19, 1.63, 7.31, repro,
2004-06-21,3.41, 3.26, -1.01, 2.19, 1.62, 7.25, repro,
2004-06-22,1.69, 3.73, 3.80, 2.18, 1.61, 7.18, repro,
2004-06-23,2.25, 3.89, -11.44, 2.20, 1.63, 7.25, repro,
2004-06-24,1.82, 2.46, -5.27, 2.19, 1.63, 7.26, repro,
2004-06-25,3.84, 3.65, -4.92, 2.23, 1.68, 7.48, repro,
2004-06-26,3.41, 4.83, -4.53, 2.25, 1.66, 7.36, repro,
2004-06-27,4.34, 4.50, -1.73, 2.19, 1.62, 7.25, repro,
2004-06-28,3.43, 3.32, -10.92, 2.23, 1.65, 7.37, repro,
2004-06-29,4.04, 2.61, -5.14, 2.30, 1.68, 7.57, repro,
2004-06-30,3.95, 3.03, -5.59, 2.26, 1.65, 7.42, repro,
2004-07-01,3.18, 3.29, 5.43, 2.19, 1.64, 7.25, repro,
2004-07-02,1.43, 3.60, -6.78, 2.18, 1.65, 7.27, repro,
2004-07-03,5.02, 3.49, -10.10, 2.29, 1.67, 7.48, repro,
2004-07-04,3.18, 2.66, -4.83, 2.19, 1.63, 7.24, repro,
2004-07-05,5.11, 4.09, 1.44, 2.22, 1.63, 7.27, repro,
2004-07-06,3.21, 2.55, -0.06, 2.18, 1.61, 7.18, repro,
2004-07-07,3.80, 4.32, -2.60, 2.27, 1.67, 7.44, repro,
2004-07-08,2.00, 3.67, 6.04, 2.21, 1.64, 7.28, repro,
2004-07-09,2.03, 3.42, 1.27, 2.28, 1.66, 7.41, repro,
2004-07-10,2.71, 2.43, -1.11, 2.25, 1.63, 7.31, repro,
2004-07-11,3.58, 4.23, 11.54, 2.23, 1.63, 7.33, repro,
2004-07-12,2.59, 3.73, 6.69, 2.21, 1.64, 7.31, repro,
2004-07-13,1.72, 3.63, -1.24, 2.17, 1.63, 7.26, repro,
2004-07-14,1.89, 4.95, -4.99, 2.20, 1.65, 7.35, repro,
2004-07-15,1.26, 3.15, 0.49, 2.21, 1.64, 7.35, repro,
2004-07-16,2.35, 3.25, -1.11, 2.33, 1.77, 7.90, repro,
2004-07-17,5.01, 4.35, 0.81, 2.17, 1.64, 7.32, repro,
2004-07-18,2.16, 3.46, 0.29, 2.24, 1.65, 7.33, repro,
2004-07-19,0.61, 3.36, 1.57, 2.18, 1.63, 7.26, repro,
2004-07-20,2.78, 1.66, -6.31, 2.26, 1.69, 7.46, repro,
2004-07-21,-0.35, 3.72, 0.59, 2.16, 1.61, 7.14, repro,
2004-07-22,3.87, 4.96, -9.00, 2.18, 1.62, 7.19, repro,
2004-07-23,2.43, 4.74, -2.02, 2.15, 1.63, 7.10, repro,
2004-07-24,3.26, 4.60, -3.61, 2.15, 1.61, 7.11, repro,
2004-07-25,1.76, 5.25, -5.37, 2.18, 1.64, 7.26, repro,
2004-07-26,2.89, 4.86, -5.13, 2.14, 1.62, 7.14, repro,
2004-07-27,2.50, 3.07, 2.59, 2.21, 1.66, 7.38, repro,
2004-07-28,2.13, 3.88, 3.19, 2.16, 1.62, 7.13, repro,
2004-07-29,2.28, 2.56, 9.25, 2.21, 1.65, 7.27, repro,
2004-07-30,3.48, 3.76, 0.82, 2.20, 1.65, 7.24, repro,
2004-07-31,2.67, 3.03, 3.03, 2.18, 1.63, 7.26, repro,
2004-08-01,3.37, 2.52, -3.29, 2.17, 1.61, 7.18, repro,
2004-08-02,2.86, 2.85, 3.03, 2.16, 1.62, 7.12, repro,
2004-08-03,2.81, 3.56, -1.22, 2.23, 1.63, 7.27, repro,
2004-08-04,2.57, 6.04, -1.92, 2.30, 1.70, 7.48, repro,
2004-08-05,1.48, 3.63, 9.71, 2.21, 1.67, 7.37, repro,
2004-08-06,4.87, 2.45, -1.33, 2.23, 1.65, 7.41, repro,
2004-08-07,1.93, 3.46, 9.18, 2.17, 1.61, 7.19, repro,
2004-08-08,2.35, 4.44, -0.21, 2.15, 1.59, 7.08, repro,
2004-08-09,2.60, 5.17, -0.37, 2.17, 1.60, 7.13, repro,
2004-08-10,2.74, 5.32, -1.95, 2.16, 1.61, 7.14, repro,
2004-08-11,3.57, 3.91, -3.93, 2.22, 1.65, 7.32, repro,
2004-08-12,3.26, 3.82, -2.18, 2.21, 1.64, 7.23, repro,
2004-08-13,2.43, 4.45, -6.54, 2.21, 1.65, 7.29, repro,
2004-08-14,2.94, 4.29, -3.41, 2.18, 1.61, 7.20, repro,
2004-08-15,3.57, 4.28, -1.64, 2.17, 1.60, 7.10, repro,
2004-08-16,4.00, 5.49, -6.11, 2.19, 1.66, 7.30, repro,
2004-08-17,1.93, 4.00, -0.33, 2.26, 1.67, 7.42, repro,
2004-08-18,0.83, 3.33, 2.50, 2.16, 1.61, 7.12, repro,
2004-08-19,0.89, 3.47, -1.64, 2.20, 1.61, 7.21, repro,
2004-08-20,3.00, 4.68, -3.68, 2.19, 1.61, 7.28, repro,
2004-08-21,4.36, 3.68, 5.43, 2.16, 1.61, 7.15, repro,
2004-08-22,0.37, 2.64, 6.08, 2.17, 1.60, 7.16, repro,
2004-08-23,2.26, 5.02, 10.22, 2.16, 1.61, 7.11, repro,
2004-08-24,2.40, 4.66, 5.82, 2.22, 1.64, 7.20, repro,
2004-08-25,1.39, 3.23, -3.46, 2.34, 1.68, 7.52, repro,
2004-08-26,3.06, 4.15, -7.14, 2.20, 1.63, 7.21, repro,
2004-08-27,4.48, 3.72, -1.56, 2.16, 1.59, 7.08, repro,
2004-08-28,1.65, 3.47, 4.33, 2.19, 1.64, 7.26, repro,
2004-08-29,2.51, 4.35, 5.05, 2.25, 1.68, 7.34, repro,
2004-08-30,2.31, 2.89, -2.45, 2.30, 1.70, 7.58, repro,
2004-08-31,3.68, 3.74, -8.82, 2.25, 1.65, 7.30, repro,
2004-09-01,2.88, 3.20, 0.46, 2.24, 1.64, 7.23, repro,
2004-09-02,4.56, 4.29, -0.88, 2.23, 1.64, 7.25, repro,
2004-09-03,3.36, 3.17, 10.60, 2.17, 1.58, 7.03, repro,
2004-09-04,2.97, 2.91, 6.49, 2.25, 1.64, 7.30, repro,
2004-09-05,1.94, 3.85, 4.61, 2.22, 1.63, 7.22, repro,
2004-09-06,3.07, 2.50, 5.47, 2.25, 1.64, 7.31, repro,
2004-09-07,2.44, 3.30, 8.55, 2.18, 1.60, 7.11, repro,
2004-09-08,2.96, 3.39, 4.02, 2.23, 1.63, 7.21, repro,
2004-09-09,2.69, 4.15, 9.09, 2.19, 1.61, 7.16, repro,
2004-09-10,1.84, 4.95, -4.45, 2.19, 1.61, 7.21, repro,
2004-09-11,0.72, 2.92, 3.66, 2.27, 1.66, 7.52, repro,
2004-09-12,1.46, 3.53, 9.25, 2.20, 1.62, 7.12, repro,
2004-09-13,2.59, 3.32, -4.32, 2.24, 1.64, 7.31, repro,
2004-09-14,3.67, 0.86, 73.83, 2.54, 1.86, 9.01, repro,
2004-09-15,1.67, -1.16, 104.37, 2.73, 2.14, 10.47, repro,
2004-09-16,1.09, 4.85, 4.03, 2.17, 1.59, 7.12, repro,
2004-09-17,1.32, 2.60, 3.68, 2.24, 1.63, 7.26, repro,
2004-09-18,4.56, 2.57, 5.06, 2.18, 1.61, 7.11, repro,
2004-09-19,2.51, 3.18, 10.05, 2.18, 1.61, 7.18, repro,
2004-09-20,4.01, 2.64, -0.54, 2.21, 1.64, 7.29, repro,
2004-09-21,2.95, 2.47, -2.93, 2.15, 1.58, 7.02, repro,
2004-09-22,3.60, 2.45, -3.45, 2.20, 1.61, 7.16, repro,
2004-09-24,2.94, 2.54, 1.56, 2.20, 1.63, 7.23, repro,
2004-09-25,3.06, 2.33, 5.63, 2.20, 1.63, 7.25, repro,
2004-09-26,4.56, 1.85, 0.55, 2.14, 1.59, 7.04, repro,
2004-09-27,2.74, 3.96, -2.57, 2.22, 1.62, 7.23, repro,
2004-09-28,3.11, 3.15, 0.33, 2.15, 1.58, 7.02, repro,
2004-09-29,4.54, 2.54, 7.40, 2.16, 1.58, 7.08, repro,
2004-09-30,2.96, 4.27, 5.67, 2.16, 1.60, 7.13, repro,
2004-10-01,3.55, 3.35, 1.85, 2.15, 1.60, 7.14, repro,
2004-10-02,2.19, 2.37, 2.66, 2.17, 1.59, 7.13, repro,
2004-10-03,5.11, 3.35, -2.76, 2.15, 1.59, 7.09, repro,
2004-10-04,3.75, 4.21, -1.79, 2.16, 1.59, 7.07, repro,
2004-10-05,4.04, 2.85, 1.57, 2.16, 1.59, 7.11, repro,
2004-10-06,2.94, 2.36, 7.86, 2.15, 1.61, 7.15, repro,
2004-10-07,2.74, 3.41, 3.27, 2.16, 1.61, 7.18, repro,
2004-10-08,2.71, 2.61, 2.72, 2.21, 1.63, 7.22, repro,
2004-10-09,1.70, 2.93, 2.37, 2.21, 1.63, 7.20, repro,
2004-10-10,2.55, 2.49, 7.48, 2.28, 1.71, 7.49, repro,
2004-10-11,4.50, 2.43, 15.67, 2.19, 1.63, 7.18, repro,
2004-10-12,4.38, 3.55, -2.32, 2.22, 1.65, 7.34, repro,
2004-10-13,3.40, 3.26, -0.83, 2.25, 1.66, 7.39, repro,
2004-10-14,4.51, 3.25, 3.18, 2.17, 1.61, 7.19, repro,
2004-10-15,4.20, 2.87, 11.31, 2.24, 1.62, 7.27, repro,
2004-10-16,3.45, 2.50, 3.55, 2.15, 1.59, 7.00, repro,
2004-10-17,3.64, 3.78, 9.97, 2.16, 1.60, 7.05, repro,
2004-10-18,2.30, 4.64, -0.71, 2.23, 1.63, 7.35, repro,
2004-10-19,2.36, 5.92, 8.56, 2.28, 1.64, 7.30, repro,
2004-10-20,6.27, 5.67, 2.72, 2.44, 1.79, 8.03, repro,
2004-10-21,8.13, 5.87, 103.40, 2.24, 1.61, 7.29, repro,
2004-10-22,3.23, 2.17, 16.40, 2.21, 1.59, 7.11, repro,
2004-10-23,0.51, 3.52, -4.70, 2.18, 1.60, 7.13, repro,
2004-10-24,-3.68, 0.13, -27.02, 2.21, 1.60, 7.15, repro,
2004-10-25,3.00, 5.50, -16.82, 2.22, 1.61, 7.22, repro,
2004-10-26,6.30, 5.38, -21.44, 2.33, 1.69, 7.60, repro,
2004-10-27,4.26, 2.19, 11.78, 2.49, 1.79, 8.11, repro,
2004-10-28,-9.42, 6.69, 23.91, 2.49, 1.75, 8.12, repro,
2004-10-29,-8.76, 8.34, -2.32, 2.17, 1.60, 7.12, repro,
2004-10-30,-8.29, 9.42, 8.52, 2.28, 1.66, 7.49, repro,
2004-10-31,-4.67, 9.86, -10.08, 2.17, 1.60, 7.08, repro,
2004-11-01,-2.88, 8.47, -18.72, 2.26, 1.64, 7.36, repro,
2004-11-02,-1.11, 6.64, -14.61, 2.18, 1.59, 7.11, repro,
2004-11-03,-3.50, 5.17, -12.88, 2.22, 1.65, 7.31, repro,
2004-11-04,-2.61, 7.28, -8.81, 2.19, 1.60, 7.12, repro,
2004-11-05,2.77, 2.11, -3.78, 2.28, 1.72, 7.48, repro,
2004-11-06,3.77, 2.99, -5.06, 2.21, 1.64, 7.24, repro,
2004-11-07,5.11, 2.99, -3.61, 2.19, 1.62, 7.16, repro,
2004-11-08,5.49, 3.72, -7.15, 2.66, 2.03, 8.92, repro,
2004-11-09,4.66, 2.71, -6.10, 2.26, 1.67, 7.47, repro,
2004-11-10,5.49, 3.07, -8.28, 2.26, 1.68, 7.55, repro,
2004-11-11,5.75, 4.12, -6.01, 2.22, 1.66, 7.30, repro,
2004-11-12,4.41, 3.09, -3.70, 2.24, 1.64, 7.35, repro,
2004-11-13,5.22, 4.09, -7.52, 2.15, 1.60, 7.00, repro,
2004-11-14,4.02, 3.35, -8.68, 2.20, 1.65, 7.19, repro,
2004-11-15,4.77, 4.45, -3.47, 2.23, 1.64, 7.21, repro,
2004-11-16,4.48, 2.62, -1.23, 2.15, 1.61, 7.06, repro,
2004-11-17,5.59, 2.71, -7.23, 2.16, 1.61, 7.08, repro,
2004-11-18,4.79, 2.85, -1.14, 2.16, 1.65, 7.19, repro,
2004-11-19,4.80, 3.34, -3.36, 2.22, 1.69, 7.33, repro,
2004-11-20,5.63, 3.60, -4.52, 2.27, 1.67, 7.36, repro,
2004-11-21,5.16, 3.33, -6.30, 2.37, 1.78, 7.78, repro,
2004-11-22,5.90, 3.15, -4.30, 2.20, 1.69, 7.39, repro,
2004-11-23,4.41, 2.20, 1.95, 2.21, 1.62, 7.18, repro,
2004-11-24,4.29, 3.62, -1.15, 2.37, 1.70, 7.62, repro,
2004-11-25,3.15, 4.70, 0.63, 2.23, 1.74, 7.43, repro,
2004-11-26,5.41, 4.57, -10.30, 2.17, 1.66, 7.18, repro,
2004-11-27,4.71, 4.43, -4.58, 2.24, 1.73, 7.44, repro,
2004-11-28,5.23, 3.44, -2.69, 2.15, 1.65, 7.16, repro,
2004-11-29,6.90, 2.49, -6.66, 2.11, 1.58, 6.96, repro,
2004-11-30,3.79, 4.81, -8.96, 2.12, 1.59, 6.91, repro,
2004-12-01,4.99, 4.90, -6.52, 2.24, 1.65, 7.19, repro,
2004-12-02,5.41, 3.40, -8.85, 2.21, 1.61, 7.13, repro,
2004-12-03,5.08, 2.69, -5.70, 2.24, 1.66, 7.39, repro,
2004-12-04,6.45, 2.49, -7.68, 2.13, 1.63, 7.16, repro,
2004-12-05,3.67, 3.21, -6.35, 2.11, 1.58, 6.95, repro,
2004-12-06,1.60, 7.48, -5.82, 2.26, 1.73, 7.43, repro,
2004-12-07,3.04, 4.90, -6.62, 2.26, 1.65, 7.30, repro,
2004-12-08,3.58, 4.04, -1.63, 2.23, 1.65, 7.22, repro,
2004-12-09,8.96, 0.56, -19.87, 2.20, 1.68, 7.18, repro,
2004-12-10,6.98, 4.47, -7.25, 2.24, 1.66, 7.35, repro,
2004-12-11,-20.62, -8.70, -0.44, 2.33, 1.74, 8.01, repro,